Weather Roundup
Issued by NWS Chicago, IL

Home | Current Version | Previous Version | Graphics & Text | Print | Product List | Glossary On
Versions: 1 2 3 4 5 6 7 8 9 10 11 12 13 14 15 16 17 18 19 20 21 22 23 24 25 26 27 28 29 30 31 32 33 34 35 36 37 38 39 40 41 42 43 44 45 46 47 48 49 50
000
NZUS59 KLOT 300003
HRRLOT

CHICAGO AREA WEATHER ROUNDUP
NATIONAL WEATHER SERVICE CHICAGO/ROMEOVILLE IL
700 PM CDT SAT APR 29 2017

NOTE: "FAIR" INDICATES FEW OR NO CLOUDS BELOW 12,000 FEET WITH NO
SIGNIFICANT WEATHER AND/OR OBSTRUCTIONS TO VISIBILITY.

* THESE STATIONS ARE NOT UNDER NWS QUALITY CONTROL. THEY ALSO MAY NOT
  REPORT WEATHER SUCH AS PRECIPITATION OR FOG.

ILZ005-006-012>014-019>023-300100-
NORTHEAST ILLINOIS

CITY           SKY/WX    TMP DP  RH WIND       PRES   REMARKS
OHARE          HVY RAIN  40  38  93 NE18G26   30.11F FOG
6HR MIN TEMP:  40; 6HR MAX TEMP:  42; 6HR PCP:  0.75;

MIDWAY         RAIN      42  41  96 NE21G35   30.09F FOG
6HR MIN TEMP:  41; 6HR MAX TEMP:  43; 6HR PCP:  1.01;

AURORA         HVY RAIN  41  39  93 NE28G38   30.04F FOG
6HR MIN TEMP:  40; 6HR MAX TEMP:  42; 6HR PCP:  1.06;

LANSING*       RAIN      42  42 100 N14G22    30.09R
WAUKEGAN       LGT RAIN  39  37  92 N17G26    30.15F FOG
6HR MIN TEMP:  38; 6HR MAX TEMP:  40;

DUPAGE AIRPORT HVY RAIN  39  39 100 NE18G28   30.09F FOG
6HR MIN TEMP:  39; 6HR MAX TEMP:  41; 6HR PCP:  0.83;

WHEELING       RAIN      39  39 100 N16G29    30.14F FOG
6HR MIN TEMP:  38; 6HR MAX TEMP:  40; 6HR PCP:  0.64;

MORRIS*        TSTM      41  39  95 NE12G22   29.96F
NORTHERLY ISL    N/A     41  39  93 N22         N/A
$$

WIZ051-052-058>065-066-070>072-300100-
SOUTHEAST WISCONSIN

CITY           SKY/WX    TMP DP  RH WIND       PRES   REMARKS
MILWAUKEE      LGT RAIN  39  36  89 N17G25    30.20F FOG
6HR MIN TEMP:  39; 6HR MAX TEMP:  41; 6HR PCP:  0.13;

KENOSHA*       RAIN      38  35  89 NE16G25   30.17F FOG
RACINE*        RAIN      39  35  86 N18G30    30.19F FOG
WAUKESHA       LGT RAIN  36  32  87 NE10G18   30.21F
$$

INZ001>003-010>013-019-020-300100-
NORTHWEST INDIANA

CITY           SKY/WX    TMP DP  RH WIND       PRES   REMARKS
GARY*          RAIN      45  43  93 N29       30.12R
MICHIGAN CITY* NOT AVBL
RENSSELAER*    NOT AVBL
VALPARAISO     LGT RAIN  49  47  93 N9        30.04F FOG
$$

LMZ740>746-300100-
SOUTHERN LAKE MICHIGAN

STATION/POSITION TIME  SKY/WX   TEMP WIND        PRES    VSBY
                                AIR  DIR/SP/G
                 (UTC)          (F)  (DEG/KT/KT) (MB)    (MI)
HARRISON CRIB    2330            41   10/ 30/ 32   N/A
BURNHAM HARBOR   0000            41   30/ 25/ 27   N/A
CALUMET HARBOR   2330            42  350/ 19/ 27 1018.6F
BURNS HARBOR     2340            45   30/ 25/ 29 1017.3F
MICHIGAN CITY    2340            44   20/ 25/ 27   N/A
$$

ABBREVIATIONS USED IN REMARKS
   TC - TEMPERATURE IN CELSIUS
  WCI - WIND CHILL INDEX
   HX - HEAT INDEX
  VSB - VISIBILITY
$$



USA.gov is the U.S. government's official web portal to all federal, state and local government web resources and services.